Location: downtown San Diego
(32.7310°N, 117.1990°W)
Time: 17:59:52
(UTC-07:00)

NOSS 2-2 (C) - Pass Details

Date: 19 May 2017
Orbit: 553 x 1657 km, 63.4° (Epoch: 21 May)

Event Time Altitude Azimuth Distance (km) Brightness Sun altitude
Exits shadow 22:04:49 12° 233° (SW) 1,724 5.9 -24.8°
Maximum altitude 22:08:22 43° 305° (NW) 802 4.5 -25.3°
Drops below altitude 10° 22:12:29 10° 17° (NNE) 1,986 6.5 -25.8°
Sets 22:15:02 0° 24° (NNE) 3,008 7.4 -26.2°
